Location: Fort Worth, Tx
(32.7431°N, 97.3695°W)
Time: 06:08:34
(UTC-05:00)

Altair - Pass Details

Date: 11 October 2023
Orbit: 1501 x 1682 km, 47.2° (Epoch: 06 December)

Event Time Altitude Azimuth Distance (km) Brightness Sun altitude
Rises 10:32:51 0° 293° (WNW) 4,910 9.6 23.7°
Reaches altitude 10° 10:37:11 10° 277° (W) 3,934 9.2 24.5°
Maximum altitude 10:43:40 19° 236° (WSW) 3,247 9.1 25.7°
Drops below altitude 10° 10:50:10 10° 195° (SSW) 3,926 9.9 26.9°
Sets 10:54:34 0° 179° (S) 4,897 10.5 27.7°
